Regional Weather Roundup
Issued by NWS

Home | Current Version | Previous Version | Graphics & Text | Print | Product List | Glossary Off
Versions: 1 2 3 4 5 6 7 8 9 10 11 12 13 14 15 16 17 18 19 20 21 22 23 24 25 26 27 28 29 30 31 32 33 34 35 36 37 38 39 40 41 42 43 44 45 46 47 48 49 50

000
ASUS43 KDMX 260207
RWRIA

WEATHER ROUNDUP FOR IOWA
NATIONAL WEATHER SERVICE DES MOINES IA
800 PM CST SUN JAN 25 2015

NOTE: "FAIR" INDICATES FEW OR NO CLOUDS BELOW 12,000 FEET WITH NO
SIGNIFICANT WEATHER AND/OR OBSTRUCTIONS TO VISIBILITY.

* - THESE STATIONS ARE NOT NWS STATIONS...THUS NOT UNDER NWS
QUALITY CONTROL.  THEY ALSO DO NOT REPORT WEATHER SUCH
AS PRECIPITATION OR FOG.

IAZ001>003-012>014-020>022-031>034-043>046-260300-
   NORTHWEST IOWA

CITY           SKY/WX    TMP DP  RH WIND       PRES   REMARKS
CARROLL *      CLOUDY    32  28  86 NE5       30.07R WCI  27
CHEROKEE *     CLOUDY    32  32 100 S3        30.05S
DENISON *      CLOUDY    32  30  93 CALM      30.05R
LE MARS *      CLOUDY    34  32  93 CALM      30.06S
ORANGE CITY *  CLOUDY    34  30  86 W6        30.04S WCI  29
SHELDON *      CLOUDY    32  32 100 SW5       30.03R WCI  27
SIOUX CITY     CLOUDY    36  32  85 W5        30.07R WCI  32
SPENCER        CLOUDY    32  28  85 CALM      30.03S
STORM LAKE *   CLOUDY    30  30 100 CALM      30.05S
$$

IAZ055>058-069>071-079>083-090>094-260300-
   SOUTHWEST IOWA

CITY           SKY/WX    TMP DP  RH WIND       PRES   REMARKS
ATLANTIC *     CLOUDY    32  28  86 CALM      30.07R
AUDUBON *      CLOUDY    30  27  86 CALM      30.07S
CLARINDA *     CLEAR     25  23  93 CALM      30.11R
COUNCIL BLFS * CLOUDY    36  34  93 CALM      30.06S
CRESTON *      CLOUDY    32  27  80 N12G17    30.07S WCI  23
HARLAN  *      CLOUDY    32  32 100 CALM      30.10S
LAMONI         CLOUDY    32  28  85 NW12      30.06R WCI  23
RED OAK *      CLOUDY    27  27 100 CALM      30.08S
SHENANDOAH *   CLOUDY    27  27 100 CALM      30.10R
$$

IAZ047>049-059>061-072>074-084-260300-
   CENTRAL IOWA

CITY           SKY/WX    TMP DP  RH WIND       PRES   REMARKS
AMES           CLOUDY    31  25  78 NW10      30.07R WCI  22
ANKENY *       CLOUDY    32  27  80 N9        30.07S WCI  24
CHARITON *     CLOUDY    32  28  86 N7        30.06S WCI  26
DES MOINES     CLOUDY    33  26  75 N8        30.07S WCI  26
GRINNELL*      CLOUDY    30  28  93 N5        30.06R WCI  25
KNOXVILLE *    CLOUDY    32  27  80 NW8       30.05S WCI  25
MARSHALLTOWN   CLOUDY    30  26  85 N8        30.05R WCI  22
PELLA *        CLOUDY    32  28  86 CALM      30.07S
PERRY *          N/A     32  28  86 N8        30.07S WCI  25
$$

IAZ004>006-015-016-023>025-035-036-260300-
   NORTH CENTRAL IOWA

CITY           SKY/WX    TMP DP  RH WIND       PRES   REMARKS
ALGONA *       CLOUDY    28  25  86 CALM      30.05F
CLARION *      CLOUDY    28  25  86 N8        30.06R WCI  20
ESTHERVILLE    CLOUDY    27  24  89 CALM      30.03S
FORT DODGE *   CLOUDY    28  21  74 NW5       30.08R WCI  23
MASON CITY     CLOUDY    26  21  81 N5        30.06R WCI  20
FOREST CITY *  MOCLDY    27  21  80 CALM      30.04F
IOWA FALLS *   CLOUDY    30  25  80 NW9       30.06R WCI  22
$$

IAZ007>011-017>019-026>030-037>042-050>054-066-260300-
   NORTHEAST IOWA

CITY           SKY/WX    TMP DP  RH WIND       PRES   REMARKS
CEDAR RAPIDS   CLEAR     22  17  81 NE8       30.05R WCI  12
CHARLES CITY * CLOUDY    27  25  93 N10       30.06S WCI  17
CLINTON *      CLEAR     18  10  73 N9        30.06R WCI   6
DECORAH *      CLOUDY    23  16  74 CALM      30.05R
DUBUQUE        CLEAR     18  11  74 N8        30.04R WCI   8
MONTICELLO *   CLEAR     19  16  86 N3        30.07R
OELWEIN *      CLOUDY    25  19  80 N5        30.06R WCI  19
WATERLOO       CLOUDY    28  24  85 N7        30.06R WCI  21
$$

IAZ064-065-067-068-078-260300-
   EAST CENTRAL IOWA

CITY           SKY/WX    TMP DP  RH WIND       PRES   REMARKS
DAVENPORT      CLEAR     17  11  77 N9        30.04R WCI   6
IOWA CITY      CLOUDY    25  18  74 N7        30.08R WCI  17
MT. PLEASANT *   N/A     25  21  86 N10       30.05R WCI  15
MUSCATINE *    CLOUDY    27  19  74 N10       30.07R WCI  17
QUAD CITIES    CLEAR     23  15  71 N6        30.03R WCI  16
$$

IAZ062-063-075>077-085>089-095>099-260300-
   SOUTHEAST IOWA

CITY           SKY/WX    TMP DP  RH WIND       PRES   REMARKS
BURLINGTON     CLEAR     26  21  81 N12       30.03R WCI  16
FAIRFIELD *    CLOUDY    27  23  86 N7        30.06R WCI  19
FORT MADISON * CLEAR     27  23  86 N9        30.04R WCI  17
KEOKUK *       PTCLDY    27  23  86 N7        30.03R WCI  19
OSKALOOSA *    CLOUDY    28  25  86 N5        30.06S WCI  23
CENTERVILLE *  CLOUDY    30  28  93 NW9       30.07R WCI  22
OTTUMWA        CLOUDY    29  25  85 N6        30.06R WCI  23
WASHINGTON *   CLOUDY    27  25  93 N8        30.06R WCI  18
$$

ABBREVIATIONS USED IN REMARKS
   TC - TEMPERATURES IN CELSIUS
  WCI - WIND CHILL INDEX
   HX - HEAT INDEX
  VSB - VISIBILITY
$$




USA.gov is the U.S. government's official web portal to all federal, state and local government web resources and services.